Simultaneous Nadir Overpasses (SNOs) Predictions

Prediction of SNOs between AURA and NPP Satellite Orbit:

Table of predicted SNOs for the next 14.0 days since TLE Epoch: 12/24/2016
Index Date (AURA) Time (AURA) Lat,Lon (AURA) SZA (AURA ) Date (NPP) Time (NPP) Lat,Lon (NPP) SZA (NPP ) Distance(km) Time Diff (sec)
1 12/26/2016 10:35:22 -79.38, 97.20 64.48 12/26/2016 10:34:31 -79.38, 97.08 64.42 2.65 51
2 12/26/2016 11:24:39 79.68, -93.05 115.10 12/26/2016 11:25:05 79.68, -93.06 115.09 0.29 26
3 12/29/2016 02:51:49 -79.46,-146.40 64.66 12/29/2016 02:51:22 -79.46,-146.52 64.61 2.55 27
4 12/29/2016 03:41:07 79.76, 23.37 114.93 12/29/2016 03:41:57 79.76, 23.38 114.89 0.15 50
5 12/31/2016 19:08:16 -79.57, -29.76 64.94 12/31/2016 19:08:13 -79.57, -29.84 64.92 1.65 3
6 12/31/2016 19:57:14 80.52, 146.06 113.58 12/31/2016 19:58:28 80.41, 146.26 113.50 12.36 74
7 01/03/2017 10:35:23 79.40, -82.72 115.13 01/03/2017 10:34:27 79.39, -82.81 115.19 2.04 56
8 01/03/2017 11:24:43 -79.67, 86.84 65.26 01/03/2017 11:25:04 -79.67, 86.83 65.28 0.22 21
9 01/06/2017 02:51:49 79.53, 34.08 114.71 01/06/2017 02:51:17 79.53, 34.10 114.73 0.63 32




NCC Satellite Simultaneous Nadir Overpasses (SNOs) Prediction Service
